Wind_Speed
6 7 7 7 8 8 8 8 7 8 7 8 8 9 9 9 9 9 9 9 9 9 10 10 10 11 11 11 11 11 12 12 11 10 10 10 10 9 9 9 9 9 8 7
7 7 7 8 8 8 9 8 8 8 8 8 9 8 8 9 9 9 9 9 9 10 10 11 12 12 12 12 12 12 12 11 11 11 10 10 10 10 10 9 9 9 8 8
9 8 8 7 8 8 8 9 9 9 9 9 9 9 9 10 10 9 10 11 11 11 11 11 12 12 13 12 12 13 12 11 11 11 11 11 11 11 11 10 10 10 9 9
10 9 8 8 8 9 9 9 10 10 10 10 10 11 11 11 10 11 11 12 12 11 11 11 12 12 12 12 12 12 13 12 11 11 11 11 11 11 12 11 10 10 10 9
10 10 9 9 9 9 10 10 10 10 10 11 11 11 10 10 11 11 12 12 13 13 13 12 12 12 12 12 11 12 12 12 11 11 11 11 11 11 12 11 11 11 9 9
11 10 10 10 10 10 10 10 10 10 11 11 11 11 11 10 11 12 12 13 13 13 13 13 13 13 13 12 12 12 13 12 12 12 12 12 12 12 12 11 11 10 10 9
12 11 11 11 10 11 11 11 11 11 11 12 11 12 12 12 11 12 12 13 13 13 13 13 13 13 13 13 13 12 12 12 12 12 13 12 12 13 12 11 10 10 10 9
13 13 13 12 12 12 12 12 12 12 12 12 12 12 12 12 12 12 12 13 13 13 13 13 13 13 13 13 14 14 13 12 12 13 13 13 12 12 12 11 10 10 9 9
14 14 14 14 14 14 13 13 13 13 13 13 14 13 13 13 13 13 13 13 14 14 14 15 14 14 14 14 14 14 14 14 13 13 13 13 13 13 12 12 11 11 10 10
15 15 15 15 15 15 15 14 14 14 14 14 14 14 13 13 14 14 14 14 15 15 15 15 15 15 15 15 15 15 15 14 14 14 14 14 14 13 13 13 13 12 12 12
16 16 16 15 15 15 15 16 15 15 15 14 14 14 13 14 14 14 14 15 15 15 15 15 16 16 16 15 15 15 15 15 15 14 14 14 14 15 15 14 13 13 13 13
17 17 17 16 16 17 17 16 16 16 16 15 15 15 15 15 15 15 15 15 15 15 16 16 15 15 15 15 15 15 15 15 15 15 15 14 14 15 15 14 14 14 14 14
18 19 19 19 18 18 18 18 17 17 18 17 17 17 16 16 16 16 15 16 16 16 17 17 16 16 16 16 16 16 16 16 16 16 16 16 16 16 15 15 15 15 15 15
20 21 21 21 20 20 19 20 19 19 19 18 17 17 18 17 16 16 17 17 16 16 17 18 18 18 18 17 17 17 17 17 16 16 17 17 17 16 16 16 16 16 16 16
21 21 21 21 21 21 21 21 20 20 19 19 18 18 18 19 19 18 19 19 19 18 18 18 18 19 19 19 19 18 18 18 17 17 17 17 17 17 16 16 17 17 17 17
21 21 21 21 21 21 22 21 21 21 20 20 20 20 19 20 20 20 20 20 20 20 20 20 20 20 20 19 19 19 19 19 19 19 18 18 18 17 18 18 18 18 18 18
21 22 22 22 21 22 23 22 21 21 21 21 21 20 20 21 21 22 22 22 21 21 22 22 22 21 21 21 21 20 20 21 20 20 19 18 18 19 19 19 19 19 19 19
22 22 23 22 22 24 22 21 21 21 21 21 22 21 21 22 22 22 23 22 22 22 22 22 22 22 23 21 21 21 22 22 21 20 20 19 19 19 19 19 19 19 20 20
23 22 23 23 24 24 23 22 22 22 22 22 22 22 22 23 23 23 23 23 23 23 23 23 23 23 23 22 22 22 22 22 22 21 20 19 19 19 19 18 18 19 19 20
23 23 24 25 25 25 24 23 23 24 24 22 23 23 23 24 24 23 23 24 24 24 24 23 23 24 24 24 23 23 22 21 21 21 20 19 19 19 20 19 19 19 20 20
24 24 24 25 25 25 24 24 23 24 24 24 24 24 24 24 24 24 24 24 25 25 25 24 24 24 24 24 23 22 21 21 21 21 20 20 20 19 19 19 19 20 20 20
24 25 25 26 27 26 25 25 25 25 26 26 25 25 25 24 24 25 25 26 26 26 25 25 24 25 25 24 24 23 22 22 22 21 21 21 21 20 20 20 20 20 20 20
25 25 26 27 27 27 26 26 26 26 27 27 27 27 26 25 25 25 26 26 27 26 26 25 24 24 24 24 24 24 23 23 23 22 22 22 22 21 21 21 20 20 20 21
26 26 27 27 27 27 27 27 27 27 27 27 27 27 27 26 26 26 25 26 27 27 27 25 25 25 24 24 24 25 24 23 23 23 23 23 22 22 22 22 21 21 21 21
26 27 27 27 27 28 28 28 28 28 28 27 27 28 27 27 26 26 25 26 27 27 27 26 26 25 25 25 25 25 25 25 24 24 24 24 24 23 22 22 22 22 22 22
27 28 28 28 27 28 28 29 29 29 28 28 28 28 27 27 27 27 26 26 26 26 27 26 26 26 26 26 26 26 26 26 25 25 24 24 24 24 24 24 23 23 24 24
Wind_Direction
238 232 229 233 229 232 234 237 241 244 246 248 251 253 253 249 247 251 251 254 258 261 260 257 259 261 262 263 264 267 268 267 269 270 270 271 272 275 273 278 281 284 279 275
237 232 233 234 235 235 236 236 241 248 253 255 257 257 255 254 253 252 255 257 261 262 261 260 262 262 264 266 266 263 266 267 271 270 271 273 272 273 272 275 276 276 276 273
239 238 240 240 238 239 237 239 246 254 258 258 258 259 259 257 255 255 256 260 263 264 261 262 265 266 265 267 266 265 264 265 268 270 272 272 272 271 273 277 276 273 271 267
241 240 241 240 239 239 241 246 251 259 263 262 262 261 260 257 254 253 255 258 260 260 260 264 267 265 264 265 265 263 262 264 266 267 269 270 269 269 272 276 276 275 274 274
243 239 240 242 243 245 247 254 257 261 263 265 267 266 263 257 256 255 256 259 258 259 263 266 266 263 261 262 262 264 266 265 264 267 267 267 268 268 270 271 272 273 276 279
243 241 240 245 248 249 255 260 260 262 264 265 266 268 267 262 261 259 257 258 258 259 263 263 263 262 263 263 264 267 269 269 266 268 267 265 266 269 269 267 266 269 273 277
245 244 246 250 252 253 257 260 263 265 264 266 267 266 268 268 267 264 260 257 256 258 260 261 261 262 264 265 266 267 268 267 267 270 269 265 266 268 266 261 260 264 269 270
249 249 248 250 254 257 259 260 261 264 264 266 266 265 268 269 266 263 260 257 256 258 260 261 262 262 264 266 267 267 267 265 264 267 265 262 265 265 264 260 256 258 263 267
251 253 250 251 254 257 259 261 263 264 265 265 266 268 269 269 266 262 260 258 258 259 262 263 264 263 264 267 268 266 265 265 264 265 263 262 262 263 264 262 258 256 261 266
250 254 254 254 254 257 258 259 261 263 266 269 270 269 270 269 266 264 262 259 258 258 260 261 264 265 264 265 266 266 265 266 265 261 260 257 260 263 265 262 258 260 261 260
250 253 256 255 255 258 258 258 259 262 265 266 266 269 266 267 265 267 267 263 258 256 256 256 259 263 264 263 265 264 262 262 262 262 261 258 261 262 265 263 261 263 261 257
250 251 254 256 256 258 257 258 259 262 264 264 265 268 269 267 265 266 267 263 258 257 255 257 256 259 261 262 263 263 260 261 263 263 264 263 264 264 264 261 262 264 263 261
249 250 254 256 257 257 258 259 260 260 262 263 264 267 268 266 264 264 264 261 260 257 255 255 256 258 261 263 263 263 261 260 261 262 262 262 264 267 264 262 262 261 259 260
252 253 254 256 258 259 259 260 260 261 262 264 264 265 266 267 265 264 264 262 260 258 256 255 255 257 258 261 263 262 262 260 260 263 262 263 264 267 266 264 263 261 260 261
255 256 256 256 256 257 258 259 259 261 262 264 265 264 264 266 266 265 264 263 261 259 258 258 257 258 259 258 261 260 258 259 261 264 263 264 265 265 264 265 265 263 262 263
255 256 257 257 259 259 258 258 260 261 262 263 264 264 265 266 263 263 263 263 261 261 259 257 257 257 258 258 260 259 258 260 262 262 262 264 264 263 263 264 265 266 265 265
254 255 257 259 260 260 258 259 261 262 263 264 265 266 265 265 263 263 264 264 264 263 261 258 257 257 257 257 259 259 260 261 263 264 265 264 264 264 264 264 264 266 267 267
256 255 257 259 260 260 262 261 262 264 264 265 268 268 267 266 266 265 264 264 264 264 262 259 257 258 258 258 258 259 259 260 262 264 265 266 265 264 264 265 266 267 268 268
256 256 258 260 261 262 262 262 264 265 265 266 270 271 269 267 266 265 264 264 264 263 263 261 259 259 259 259 259 260 260 259 261 263 265 266 265 265 265 266 266 269 269 270
257 258 260 261 261 262 263 264 264 266 265 267 270 271 270 269 267 266 265 265 264 264 263 261 259 260 259 259 259 259 259 259 260 261 263 264 264 264 264 265 266 266 268 271
256 259 260 261 260 261 263 265 264 265 267 268 270 271 271 272 269 268 266 265 265 263 261 260 260 260 260 259 258 258 258 258 259 258 260 261 262 263 264 264 264 266 269 272
257 258 259 260 260 262 263 264 265 266 267 268 267 269 270 269 269 268 265 264 264 262 261 260 258 258 259 257 256 256 257 257 257 258 258 258 260 262 264 266 267 267 269 271
255 257 258 259 262 263 263 265 266 267 268 268 268 268 268 268 268 268 266 264 262 261 260 259 258 256 256 256 256 256 256 256 256 256 257 258 259 261 263 265 267 268 269 271
255 256 258 259 261 263 264 265 266 267 268 268 268 268 269 268 267 266 265 262 260 260 259 259 257 255 255 255 256 255 256 256 256 256 257 258 260 261 263 265 267 268 270 273
255 257 259 261 262 262 263 265 267 267 268 269 269 269 269 268 266 264 263 261 261 260 258 257 257 255 254 255 255 255 256 257 257 258 259 260 260 262 262 264 265 268 270 272
256 258 260 262 262 263 263 265 266 266 267 269 271 271 270 269 267 264 261 261 260 258 257 257 256 255 254 254 254 255 255 256 258 259 259 260 261 261 263 264 266 268 270 272
Height
5857 5859 5859 5860 5861 5862 5862 5863 5864 5864 5865 5865 5865 5866 5866 5866 5867 5867 5868 5868 5869 5869 5869 5869 5870 5870 5870 5869 5869 5869 5869 5869 5869 5869 5869 5869 5868 5868 5867 5867 5866 5866 5865 5865
5856 5856 5857 5858 5859 5860 5860 5862 5862 5863 5863 5863 5863 5864 5864 5864 5865 5866 5866 5867 5867 5867 5867 5867 5867 5867 5867 5867 5867 5867 5867 5867 5867 5867 5867 5867 5866 5866 5865 5865 5865 5864 5864 5863
5854 5855 5855 5856 5857 5858 5859 5860 5860 5861 5861 5861 5862 5862 5862 5862 5863 5863 5864 5864 5864 5865 5865 5865 5865 5865 5865 5865 5864 5864 5864 5864 5864 5864 5864 5864 5864 5864 5863 5863 5863 5862 5862 5861
5851 5853 5853 5854 5855 5856 5857 5857 5858 5858 5859 5859 5860 5860 5860 5860 5861 5861 5861 5861 5862 5862 5862 5862 5862 5862 5862 5862 5862 5862 5862 5862 5862 5862 5862 5862 5861 5861 5861 5861 5860 5860 5860 5859
5849 5850 5851 5852 5853 5853 5854 5855 5855 5856 5856 5856 5857 5857 5858 5858 5858 5858 5858 5858 5859 5859 5859 5859 5859 5859 5859 5859 5859 5859 5859 5859 5859 5859 5859 5859 5859 5859 5858 5858 5858 5858 5857 5857
5846 5847 5848 5850 5850 5851 5851 5852 5853 5853 5854 5854 5855 5855 5855 5855 5855 5855 5855 5855 5856 5856 5856 5856 5856 5856 5856 5856 5856 5856 5856 5856 5856 5856 5856 5856 5856 5856 5855 5855 5855 5855 5855 5855
5844 5845 5846 5847 5847 5848 5849 5850 5851 5851 5851 5852 5852 5852 5852 5852 5852 5852 5852 5852 5852 5852 5852 5853 5853 5853 5854 5854 5853 5853 5853 5853 5854 5853 5853 5853 5853 5853 5852 5852 5852 5853 5853 5853
5841 5842 5843 5844 5845 5845 5846 5847 5848 5849 5849 5848 5848 5848 5849 5849 5848 5848 5848 5848 5848 5849 5849 5849 5850 5850 5850 5850 5850 5850 5851 5851 5850 5850 5850 5850 5850 5850 5849 5849 5850 5850 5850 5850
5837 5839 5839 5840 5841 5841 5842 5843 5844 5844 5844 5845 5845 5845 5845 5845 5844 5844 5844 5844 5844 5845 5845 5845 5846 5846 5847 5847 5847 5847 5847 5847 5847 5847 5847 5847 5847 5847 5847 5847 5847 5847 5847 5848
5833 5834 5835 5836 5837 5837 5839 5839 5840 5840 5840 5841 5841 5841 5842 5841 5840 5840 5840 5840 5840 5841 5841 5841 5842 5842 5843 5843 5843 5843 5843 5843 5843 5844 5844 5844 5844 5844 5844 5844 5844 5844 5844 5845
5828 5830 5831 5832 5832 5833 5834 5835 5835 5836 5836 5837 5837 5839 5837 5837 5836 5836 5836 5836 5836 5836 5837 5837 5838 5838 5838 5839 5839 5839 5839 5839 5840 5840 5840 5840 5840 5840 5840 5840 5840 5841 5841 5841
5824 5825 5826 5827 5828 5828 5829 5830 5831 5832 5832 5832 5832 5836 5832 5832 5832 5831 5831 5831 5831 5832 5832 5833 5833 5834 5834 5834 5835 5835 5835 5835 5835 5836 5836 5836 5836 5836 5837 5837 5837 5837 5837 5837
5818 5820 5821 5822 5824 5824 5824 5824 5825 5826 5826 5827 5828 5831 5827 5827 5827 5827 5827 5827 5827 5827 5828 5828 5829 5829 5830 5830 5830 5830 5831 5831 5831 5831 5832 5832 5832 5832 5832 5833 5833 5833 5833 5833
5813 5814 5816 5818 5817 5818 5818 5819 5819 5820 5820 5821 5822 5823 5822 5822 5822 5822 5822 5822 5822 5822 5823 5823 5824 5824 5825 5825 5826 5826 5826 5826 5827 5827 5827 5827 5828 5828 5828 5828 5828 5828 5828 5829
5807 5808 5809 5810 5810 5811 5812 5812 5813 5813 5814 5815 5816 5817 5817 5816 5816 5816 5816 5816 5817 5817 5818 5818 5819 5819 5820 5820 5821 5821 5821 5821 5822 5822 5822 5822 5823 5823 5823 5823 5823 5823 5824 5824
5800 5802 5803 5804 5804 5804 5805 5806 5806 5807 5808 5809 5809 5810 5810 5810 5810 5810 5811 5811 5811 5812 5812 5813 5813 5814 5814 5815 5815 5816 5816 5816 5817 5817 5817 5817 5817 5817 5818 5818 5818 5818 5818 5818
5794 5795 5796 5797 5798 5797 5798 5800 5800 5801 5801 5802 5803 5804 5803 5803 5803 5804 5804 5804 5805 5805 5806 5806 5807 5807 5808 5809 5809 5810 5810 5811 5811 5811 5811 5811 5811 5811 5812 5812 5812 5812 5812 5813
5787 5788 5789 5790 5791 5791 5795 5794 5794 5794 5794 5795 5795 5796 5796 5796 5796 5796 5797 5797 5798 5798 5799 5799 5800 5801 5802 5802 5803 5804 5804 5805 5805 5805 5805 5805 5805 5805 5806 5806 5806 5806 5806 5806
5780 5781 5782 5783 5783 5784 5786 5787 5787 5787 5788 5788 5788 5789 5789 5788 5789 5789 5789 5789 5790 5791 5791 5792 5793 5794 5795 5795 5796 5797 5798 5798 5798 5799 5799 5799 5799 5799 5800 5800 5800 5800 5800 5800
5772 5773 5775 5775 5775 5777 5780 5780 5780 5780 5780 5782 5781 5781 5781 5781 5782 5782 5782 5782 5782 5783 5783 5784 5785 5786 5787 5788 5789 5790 5791 5791 5792 5792 5793 5793 5793 5793 5793 5793 5793 5794 5794 5793
5765 5766 5767 5767 5767 5769 5772 5772 5773 5774 5775 5774 5773 5773 5774 5774 5774 5774 5774 5774 5774 5774 5775 5776 5777 5778 5779 5780 5781 5782 5783 5784 5785 5785 5786 5786 5787 5787 5787 5787 5787 5787 5787 5787
5757 5758 5759 5760 5760 5764 5763 5764 5765 5765 5765 5765 5765 5765 5765 5765 5765 5765 5765 5765 5766 5766 5767 5768 5769 5770 5771 5773 5774 5775 5776 5777 5777 5778 5779 5779 5780 5780 5780 5780 5781 5781 5780 5780
5749 5751 5752 5753 5755 5755 5755 5755 5755 5756 5756 5756 5757 5757 5757 5757 5757 5757 5757 5757 5757 5758 5759 5759 5760 5762 5763 5765 5766 5767 5768 5769 5770 5771 5771 5772 5773 5773 5773 5774 5774 5774 5774 5773
5741 5742 5743 5744 5745 5746 5746 5746 5747 5747 5747 5748 5748 5748 5748 5748 5748 5748 5748 5748 5748 5749 5750 5751 5752 5754 5755 5757 5758 5759 5760 5762 5763 5763 5764 5764 5765 5766 5766 5767 5767 5767 5767 5766
5733 5734 5734 5735 5737 5737 5737 5738 5738 5738 5738 5739 5739 5739 5739 5739 5739 5739 5740 5740 5740 5740 5741 5742 5744 5745 5747 5749 5750 5751 5753 5754 5755 5756 5756 5757 5758 5758 5759 5759 5759 5760 5760 5759
5724 5725 5726 5727 5728 5728 5729 5729 5729 5729 5729 5730 5730 5730 5730 5730 5730 5730 5731 5731 5731 5732 5733 5734 5735 5737 5738 5740 5742 5743 5744 5746 5747 5748 5749 5749 5750 5751 5751 5752 5752 5752 5752 5752